Location: Saluda
(35.2377°N, 82.3468°W)
Time: 17:53:59
(UTC+00:00)

Transit 2A - Pass Details

Date: 06 October 2022
Orbit: 598 x 959 km, 66.7° (Epoch: 06 December)

Event Time Altitude Azimuth Distance (km) Brightness Sun altitude
Rises 12:37:39 0° 335° (NNW) 3,008 8.7 13.1°
Reaches altitude 10° 12:39:53 10° 337° (NNW) 2,137 8.0 13.5°
Maximum altitude 12:44:44 73° 63° (ENE) 772 6.5 14.4°
Drops below altitude 10° 12:50:07 10° 148° (SSE) 2,361 9.5 15.5°
Sets 12:52:40 0° 150° (SSE) 3,349 10.1 16.0°
